Погода в Вилья-Аес

Парагвай     24°21′00″S   58°09′53″W
темп.,
°C
ветер,
м/с
пор.,
м/с
влажн.,
%
обл.,
%
осадки,
мм/ч
давл.,
гПа
погр.,
м
1 марта, пн
пн100:00+26вюв311580 0.0 1007336
03:00+23вюв24680 0.0 1007104
06:00+22юв22750 0.0 100746
09:00+28вюв23600 0.0 1009331
12:00+35вюв23390 0.0 10081763
15:00+37юв23329 0.0 10042455
18:00+34юв354094 0.0 1003924
21:00+29в395490 0.0 1005278
2 марта, вт
вт200:00+27всв310640 0.0 1007393
03:00+24св26790 0.0 1007200
06:00+23всв248730 0.0 1008107
09:00+27св256924 0.0 1009418
12:00+35ссв22420 0.0 10091517
15:00+40всв11313 0.0 10052305
18:00+35ююв234070 0.0 10051240
21:00+27всв236856 0.5 100634
3 марта, ср
ср300:00+25в38720 0.1 1009190
03:00+24всв268316 0.2 1009164
06:00+23св239010 0.1 100999
09:00+27св247114 0.1 1010381
12:00+35ссв224450 0.0 10101375
15:00+39ссв113237 0.0 10072404
18:00+35всв224075 0.0 10051318
21:00+29всв135678 0.3 100787
4 марта, чт
чт400:00+23ю119569 7.6 100925
03:00+22ссв139779 10.4 1008149
06:00+22св249834 0.1 1008162
09:00+25с378744 0.1 1010586
12:00+29сз4669100 0.1 1009948
15:00+31з256493 7.1 10071138
18:00+26юз298699 7.8 1006566
21:00+23ю269497 8.3 1008199
5 марта, пт
пт500:00+23ююв2894100 0.6 1008374
03:00+23всв1195100 1.0 100740
06:00+21зюз269856 0.1 1006225
09:00+24з368431 0.2 1008340
12:00+31з35510 0.0 10071577
15:00+30зюз245441 0.2 10041475
18:00+29ююз126747 1.3 1003504
21:00+23ю289032 2.1 1005209